Location: Newark
(56.0692°N, 115.8617°E)
Time: 12:47:40
(UTC+00:00)

Vanguard 2 Rocket - Pass Details

Date: 26 May 2020
Orbit: 556 x 3325 km, 32.9° (Epoch: 14 July)

Event Time Altitude Azimuth Distance (km) Brightness Sun altitude
Rises 09:49:08 0° 231° (SW) 5,054 11.4 20.9°
Reaches altitude 10° 09:52:41 10° 220° (SW) 4,443 10.9 20.4°
Maximum altitude 10:02:59 28° 168° (SSE) 4,059 10.1 19.0°
Drops below altitude 10° 10:17:02 10° 120° (ESE) 6,135 10.6 17.0°
Sets 10:23:09 0° 111° (ESE) 7,294 10.9 16.2°
